Location: Iesi
(43.5167°N, 13.2333°E)
Time: 19:19:12
(UTC+00:00)

ALOS 2 - Pass Details

Date: 08 August 2020
Orbit: 630 x 632 km, 97.9° (Epoch: 24 September)

Event Time Altitude Azimuth Distance (km) Brightness Sun altitude
Exits shadow 22:27:31 41° 4° (N) 926 3.8 -29.8°
Drops below altitude 10° 22:30:27 10° 352° (N) 2,024 6.1 -29.9°
Sets 22:32:40 0° 350° (N) 2,936 7.2 -30.0°
